TimeEST,TemperatureF,Dew PointF,Humidity,Sea Level PressureIn,VisibilityMPH,Wind Direction,Wind SpeedMPH,Gust SpeedMPH,PrecipitationIn,Events,Conditions,WindDirDegrees,DateUTC
12:53 AM,51.1,27.0,39,30.18,10.0,SSW,5.8,-,N/A,,Mostly Cloudy,200,2012-11-27 05:53:00
1:53 AM,52.0,28.0,40,30.18,10.0,SW,8.1,-,N/A,,Mostly Cloudy,230,2012-11-27 06:53:00
2:53 AM,52.0,28.0,40,30.17,10.0,SW,6.9,-,N/A,,Overcast,220,2012-11-27 07:53:00
3:53 AM,52.0,28.0,40,30.16,10.0,SW,8.1,-,N/A,,Overcast,230,2012-11-27 08:53:00
4:53 AM,51.1,27.0,39,30.16,10.0,SSW,6.9,-,0.00,,Overcast,210,2012-11-27 09:53:00
5:53 AM,51.1,27.0,39,30.17,10.0,SW,8.1,-,N/A,,Overcast,230,2012-11-27 10:53:00
6:53 AM,50.0,35.1,57,30.18,10.0,WSW,6.9,-,0.00,,Overcast,240,2012-11-27 11:53:00
7:53 AM,50.0,34.0,54,30.18,10.0,SSW,4.6,-,N/A,,Overcast,210,2012-11-27 12:53:00
8:53 AM,51.1,33.1,50,30.19,10.0,SSW,5.8,-,N/A,,Mostly Cloudy,210,2012-11-27 13:53:00
9:53 AM,54.0,33.1,45,30.19,10.0,SW,4.6,-,N/A,,Overcast,220,2012-11-27 14:53:00
10:53 AM,55.9,33.1,42,30.19,10.0,SW,10.4,-,N/A,,Mostly Cloudy,230,2012-11-27 15:53:00
11:53 AM,57.0,37.0,47,30.17,10.0,SW,9.2,-,N/A,,Overcast,220,2012-11-27 16:53:00
12:42 PM,55.4,41.0,58,30.12,10.0,WSW,10.4,-,N/A,,Overcast,240,2012-11-27 17:42:00
12:53 PM,55.9,42.1,60,30.15,10.0,WSW,8.1,-,N/A,,Overcast,250,2012-11-27 17:53:00
1:53 PM,55.9,44.1,64,30.13,10.0,SW,6.9,-,N/A,,Overcast,230,2012-11-27 18:53:00
2:53 PM,54.0,46.9,77,30.13,10.0,WSW,8.1,-,0.00,,Overcast,250,2012-11-27 19:53:00
3:53 PM,53.1,48.9,86,30.14,5.0,WNW,3.5,-,0.00,Rain,Light Rain,300,2012-11-27 20:53:00
4:13 PM,51.8,50.0,94,30.11,2.5,NW,3.5,-,0.00,Rain,Light Rain,310,2012-11-27 21:13:00
4:43 PM,51.8,51.8,100,30.13,4.0,WNW,3.5,-,0.01,Rain,Light Rain,300,2012-11-27 21:43:00
4:50 PM,51.8,51.8,100,30.12,3.0,Calm,Calm,-,0.01,Rain,Light Rain,0,2012-11-27 21:50:00
4:53 PM,52.0,51.1,97,30.16,3.0,Calm,Calm,-,0.02,Rain,Light Rain,0,2012-11-27 21:53:00
5:02 PM,51.8,51.8,100,30.13,4.0,North,5.8,-,0.00,Rain,Light Rain,10,2012-11-27 22:02:00
5:10 PM,51.8,50.0,94,30.12,6.0,NNE,4.6,-,0.00,Rain,Light Rain,30,2012-11-27 22:10:00
5:18 PM,51.8,50.0,94,30.13,7.0,NNE,3.5,-,0.00,Rain,Light Rain,20,2012-11-27 22:18:00
5:39 PM,51.8,50.0,94,30.13,6.0,NE,4.6,-,0.00,Rain,Light Rain,40,2012-11-27 22:39:00
5:53 PM,51.1,50.0,96,30.16,8.0,NE,5.8,-,0.00,Rain,Light Rain,40,2012-11-27 22:53:00
6:25 PM,51.8,48.2,88,30.14,6.0,NNE,9.2,-,0.00,,Overcast,30,2012-11-27 23:25:00
7:53 PM,48.9,46.9,93,30.21,5.0,North,6.9,-,N/A,,Overcast,10,2012-11-28 00:53:00
8:53 PM,48.0,46.0,93,30.22,5.0,NE,6.9,-,N/A,,Overcast,40,2012-11-28 01:53:00
9:53 PM,48.0,46.0,93,30.24,6.0,NE,5.8,-,N/A,,Overcast,40,2012-11-28 02:53:00
10:53 PM,46.9,45.0,93,30.25,6.0,NE,8.1,-,N/A,,Overcast,40,2012-11-28 03:53:00
11:53 PM,46.9,44.1,90,30.24,7.0,NE,9.2,-,N/A,,Overcast,50,2012-11-28 04:53:00